Flag for Rwanda Weather past 2 weeks in Gitarama, Rwanda

Now
72 °F

Partly sunny.


Feels Like: 69 °F
Forecast: 63 / 79 °F
Wind: 3 mph from Southeast

Location: Kigali Airport

Current Time: May 28, 2015 at 8:57:24 AM

Latest Report: May 28, 2015 at 8:30 AM


Visibility: 5 mi

Pressure: 30.21 "Hg

Humidity: 88%

Dew point: 68 °F

Location of GitaramaLocation

Historic Weather in Gitarama — Graph

°F

Gitarama temperature yesterday

Maximum temperature yesterday: 81 °F (at 2:00 PM)
Minimum temperature yesterday: 63 °F (at 5:30 AM)
Average temperature yesterday: 71 °F

Past Weeks' High & Low Weather Summary

 TemperatureHumidityPressure
High82 °F (May 15, 3:00 PM)100% (May 13, 7:00 AM)30.27 "Hg (May 13, 7:00 AM)
Low61 °F (May 15, 4:30 AM)51% (May 17, 3:30 PM)30.04 "Hg (May 17, 4:30 PM)
Average71 °F83%30.16 "Hg
* Reported May 13 7:00 AM — May 28 7:30 AM, Gitarama, Weather by CustomWeather, © 2015

Note: Actual official high and low records may vary slightly from our data, if they occured in-between our weather recording intervals... More about our weather records

Advertising

Gitarama weather history for previous 24 hours

 ConditionsComfort  
Time TempWeatherWind HumidityBarometerVisibility
7:30 AM
Thu, May 28
70 °FPassing clouds.5 mph88%30.18 "HgN/A
7:00 AM64 °FPassing clouds.No wind100%30.18 "HgN/A
6:30 AM64 °FPassing clouds.3 mph100%30.15 "HgN/A
6:00 AM64 °FPassing clouds.3 mph100%30.15 "HgN/A
5:30 AM64 °FPassing clouds.5 mph100%30.15 "HgN/A
5:00 AM64 °FPassing clouds.No wind100%30.15 "HgN/A
4:00 AM66 °FPassing clouds.No wind94%30.15 "HgN/A
2:00 AM66 °FPassing clouds.3 mph94%30.12 "HgN/A
1:30 AM68 °FPassing clouds.3 mph88%30.15 "HgN/A
1:00 AM68 °FPassing clouds.No wind88%30.15 "HgN/A
12:30 AM68 °FPassing clouds.No wind88%30.15 "HgN/A
12:00 AM68 °FPassing clouds.No wind94%30.15 "HgN/A
11:30 PM
Wed, May 27
68 °FPassing clouds.3 mph88%30.15 "HgN/A
11:00 PM68 °FPassing clouds.3 mph88%30.15 "HgN/A
10:30 PM68 °FPassing clouds.No wind88%30.15 "HgN/A
10:00 PM68 °FPassing clouds.No wind88%30.15 "HgN/A
9:30 PM68 °FPassing clouds.No wind88%30.15 "HgN/A
8:30 PM70 °FPassing clouds.No wind78%30.12 "HgN/A
8:00 PM70 °FPassing clouds.No wind78%30.12 "HgN/A
7:30 PM72 °FPassing clouds.No wind73%30.12 "HgN/A
7:00 PM72 °FPassing clouds.3 mph73%30.09 "HgN/A
6:30 PM72 °FPassing clouds.5 mph73%30.09 "HgN/A
6:00 PM73 °FPassing clouds.5 mph74%30.09 "HgN/A
5:30 PM79 °FScattered clouds.5 mph65%30.09 "HgN/A
5:00 PM81 °FScattered clouds.3 mph62%30.09 "HgN/A
4:30 PM81 °FScattered clouds.5 mph58%30.09 "HgN/A
4:00 PM77 °FScattered clouds.6 mph65%30.09 "HgN/A
3:30 PM77 °FLight rain. Scattered clouds.7 mph65%30.09 "HgN/A
3:00 PM81 °FScattered clouds.6 mph58%30.09 "HgN/A
2:00 PM81 °FScattered clouds.6 mph62%30.12 "HgN/A
1:30 PM79 °FScattered clouds.5 mph61%30.12 "HgN/A
1:00 PM79 °FPartly sunny.3 mph65%30.15 "HgN/A
12:30 PM79 °FPartly sunny.7 mph65%30.18 "HgN/A
12:00 PM77 °FPartly sunny.9 mph74%30.18 "HgN/A
11:30 AM77 °FPartly sunny.9 mph69%30.21 "HgN/A
11:00 AM77 °FPartly sunny.7 mph69%30.21 "HgN/A
10:30 AM75 °FPartly sunny.6 mph69%30.21 "HgN/A
10:00 AM75 °FPartly sunny.5 mph74%30.24 "HgN/A
9:30 AM75 °FPassing clouds.3 mph78%30.24 "Hg5 mi
9:00 AM75 °FPassing clouds.No wind74%30.24 "Hg5 mi
8:30 AM72 °FPassing clouds.No wind83%30.21 "Hg5 mi
8:00 AM70 °FPassing clouds.No wind88%30.21 "Hg5 mi
Weather by CustomWeather, © 2015

See weather overviewHow to use our weather pages